Location: Knowlton
(51.2333°N, 1.2667°E)
Time: 10:48:13
(UTC+00:00)

AO-73 - Visible Passes

Search period start: 01 December 2021 00:00
Search period end: 11 December 2021 00:00
Orbit: 581 x 660 km, 97.6° (Epoch: 30 November)

Date Brightness Start Highest point End Pass type
(mag) Time Alt. Az. Time Alt. Az. Time Alt. Az.
01 Dec ? 03:59:38 10° NNE 04:02:04 27° NE 04:02:04 27° NE visible
01 Dec ? 05:35:59 10° N 05:39:15 29° NW 05:39:15 29° NW visible
01 Dec ? 16:36:41 10° SW 16:39:55 21° W 16:43:12 10° NW visible
02 Dec ? 04:17:04 10° NNE 04:19:35 31° NE 04:19:35 31° NE visible
02 Dec ? 05:53:50 10° N 05:56:46 22° NW 05:56:46 22° NW visible
02 Dec ? 16:55:19 10° WSW 16:57:41 14° W 17:00:06 10° NW visible
03 Dec ? 04:34:34 10° NNE 04:37:06 33° NNE 04:37:06 33° NNE visible
03 Dec ? 06:11:51 10° NNW 06:14:17 17° NW 06:14:17 17° NW visible
04 Dec ? 03:17:09 10° NE 03:17:28 11° NE 03:17:28 11° NE visible
04 Dec ? 04:52:09 10° N 04:54:39 32° N 04:54:39 32° N visible
04 Dec ? 06:30:09 10° NNW 06:31:49 13° NW 06:31:49 13° NW visible
05 Dec ? 03:34:10 10° NE 03:35:01 14° NE 03:35:01 14° NE visible
05 Dec ? 05:09:49 10° N 05:12:11 29° N 05:12:11 29° N visible
06 Dec ? 03:51:24 10° NNE 03:52:34 16° NE 03:52:34 16° NE visible
06 Dec ? 05:27:33 10° N 05:29:44 24° NNW 05:29:44 24° NNW visible
06 Dec ? 16:27:54 10° SSW 16:31:28 24° W 16:35:07 10° NW visible
07 Dec ? 04:08:47 10° NNE 04:10:08 19° NNE 04:10:08 19° NNE visible
07 Dec ? 05:45:21 10° N 05:47:18 20° NNW 05:47:18 20° NNW visible
07 Dec ? 16:46:19 10° SW 16:49:13 17° W 16:52:10 10° NW visible
08 Dec ? 04:26:15 10° NNE 04:27:42 20° NNE 04:27:42 20° NNE visible
08 Dec ? 06:03:17 10° NNW 06:04:52 16° NNW 06:04:52 16° NNW visible
08 Dec ? 17:05:20 10° WSW 17:07:01 12° W 17:08:43 10° WNW visible
09 Dec ? 04:43:48 10° NNE 04:45:17 21° NNE 04:45:17 21° NNE visible
09 Dec ? 06:21:25 10° NNW 06:22:27 13° NW 06:22:27 13° NW visible
10 Dec ? 05:01:24 10° N 05:02:52 20° N 05:02:52 20° N visible
